TUI4282 EDDM-LGIR

Flight info

Callsign TUI4282
Flight time 2h 25m
Altitude 37000
Route VAVOR3E VAVOR M867 RADIZ DCT REKTI DCT NEMEK DCT ELTIB DCT PINDO DCT KEA UL607 GIVIS T514 XAVIS
Aircraft B38M/M-SDE1FGHILORVWXY/HB1

Departure

Time 2026-05-06 09:26
Airport Munich Airport (EDDM)

Arrival

Time 2026-05-06 11:51
Airport Heraklion International Nikos Kazantzakis Airport (LGIR)
Time Latitude Longitude Altitude Speed Heading
2026-05-06 08:43 48.35461 11.77670 1488 ft 0 kts 263°
2026-05-06 09:14 48.35463 11.77688 1475 ft 4 kts 263°
2026-05-06 09:15 48.35470 11.77730 1479 ft 4 kts 203°
2026-05-06 09:15 48.35489 11.77732 1482 ft 4 kts 173°
2026-05-06 09:15 48.35506 11.77728 1475 ft 0 kts 173°
2026-05-06 09:19 48.35501 11.77729 1481 ft 2 kts 173°
2026-05-06 09:19 48.35467 11.77735 1477 ft 8 kts 173°
2026-05-06 09:20 48.35386 11.77749 1488 ft 15 kts 173°
2026-05-06 09:20 48.35257 11.77772 1481 ft 22 kts 173°
2026-05-06 09:20 48.35100 11.77801 1483 ft 23 kts 173°
2026-05-06 09:20 48.34942 11.77826 1483 ft 17 kts 174°
2026-05-06 09:21 48.34854 11.77860 1481 ft 14 kts 161°
2026-05-06 09:21 48.34757 11.77885 1488 ft 15 kts 172°
2026-05-06 09:21 48.34669 11.77950 1488 ft 15 kts 102°
2026-05-06 09:21 48.34680 11.78110 1488 ft 16 kts 83°
2026-05-06 09:22 48.34693 11.78283 1488 ft 17 kts 83°
2026-05-06 09:22 48.34708 11.78475 1488 ft 21 kts 83°
2026-05-06 09:22 48.34727 11.78727 1481 ft 28 kts 83°
2026-05-06 09:22 48.34752 11.79048 1481 ft 33 kts 83°
2026-05-06 09:23 48.34779 11.79394 1485 ft 34 kts 83°
2026-05-06 09:23 48.34805 11.79742 1488 ft 30 kts 83°
2026-05-06 09:23 48.34825 11.80001 1474 ft 25 kts 83°
2026-05-06 09:23 48.34799 11.80183 1476 ft 18 kts 131°
2026-05-06 09:24 48.34686 11.80249 1475 ft 19 kts 174°
2026-05-06 09:24 48.34554 11.80272 1483 ft 19 kts 173°
2026-05-06 09:24 48.34504 11.80270 1483 ft 7 kts 192°
2026-05-06 09:24 48.34466 11.80223 1483 ft 8 kts 248°
2026-05-06 09:25 48.34454 11.80108 1488 ft 18 kts 263°
2026-05-06 09:25 48.34410 11.79541 1478 ft 91 kts 263°
2026-05-06 09:25 48.34313 11.78290 1488 ft 151 kts 262°
2026-05-06 09:25 48.34193 11.76537 1737 ft 178 kts 265°
2026-05-06 09:26 48.34076 11.74598 2356 ft 193 kts 265°
2026-05-06 09:26 48.33880 11.72581 3152 ft 194 kts 252°
2026-05-06 09:26 48.33114 11.70844 3571 ft 215 kts 216°
2026-05-06 09:26 48.31673 11.70114 4010 ft 230 kts 177°
2026-05-06 09:27 48.30121 11.70494 5036 ft 220 kts 167°
2026-05-06 09:27 48.28587 11.70944 5842 ft 230 kts 169°
2026-05-06 09:27 48.27031 11.71591 6649 ft 237 kts 157°
2026-05-06 09:27 48.25567 11.72968 6823 ft 259 kts 142°
2026-05-06 09:28 48.24175 11.74749 6933 ft 266 kts 140°
2026-05-06 09:28 48.22746 11.76550 6972 ft 270 kts 143°
2026-05-06 09:28 48.21241 11.78228 6830 ft 269 kts 146°
2026-05-06 09:28 48.19706 11.79859 7035 ft 271 kts 146°
2026-05-06 09:29 48.18182 11.81494 7992 ft 271 kts 141°
2026-05-06 09:29 48.16913 11.83648 8819 ft 279 kts 131°
2026-05-06 09:29 48.15679 11.85928 9665 ft 284 kts 133°
2026-05-06 09:29 48.14408 11.88247 10315 ft 295 kts 133°
2026-05-06 09:30 48.13067 11.90689 10704 ft 312 kts 133°
2026-05-06 09:30 48.11660 11.93243 11260 ft 324 kts 133°
2026-05-06 09:30 48.10216 11.95862 12044 ft 327 kts 133°
2026-05-06 09:30 48.08761 11.98496 12856 ft 330 kts 133°
2026-05-06 09:31 48.07267 12.01123 13609 ft 332 kts 140°
2026-05-06 09:31 48.05418 12.03188 14212 ft 334 kts 149°
2026-05-06 09:31 48.03492 12.05166 14913 ft 337 kts 149°
2026-05-06 09:31 48.01549 12.07160 15611 ft 341 kts 149°
2026-05-06 09:32 47.99580 12.09173 16265 ft 345 kts 150°
2026-05-06 09:32 47.97588 12.11206 16964 ft 348 kts 150°
2026-05-06 09:32 47.95580 12.13252 17654 ft 351 kts 150°
2026-05-06 09:32 47.93561 12.15338 18285 ft 356 kts 147°
2026-05-06 09:33 47.91666 12.17755 18866 ft 360 kts 144°
2026-05-06 09:33 47.89760 12.20186 19440 ft 362 kts 145°
2026-05-06 09:33 47.87829 12.22619 20022 ft 364 kts 146°
2026-05-06 09:33 47.85883 12.25054 20601 ft 367 kts 146°
2026-05-06 09:34 47.83941 12.27476 21152 ft 369 kts 146°
2026-05-06 09:34 47.81966 12.29934 21711 ft 372 kts 146°
2026-05-06 09:34 47.79975 12.32407 22260 ft 374 kts 147°
2026-05-06 09:34 47.77966 12.34901 22808 ft 377 kts 147°
2026-05-06 09:35 47.75946 12.37406 23291 ft 380 kts 147°
2026-05-06 09:35 47.73914 12.39924 23713 ft 381 kts 147°
2026-05-06 09:35 47.71869 12.42455 24151 ft 384 kts 147°
2026-05-06 09:35 47.69809 12.45004 24550 ft 387 kts 147°
2026-05-06 09:36 47.67730 12.47571 24970 ft 389 kts 147°
2026-05-06 09:36 47.65645 12.50145 25373 ft 392 kts 147°
2026-05-06 09:36 47.63537 12.52745 25763 ft 394 kts 147°
2026-05-06 09:36 47.61483 12.55468 26181 ft 399 kts 144°
2026-05-06 09:37 47.59425 12.58246 26607 ft 401 kts 145°
2026-05-06 09:37 47.57353 12.61024 26954 ft 404 kts 145°
2026-05-06 09:37 47.55261 12.63819 27300 ft 405 kts 145°
2026-05-06 09:37 47.53164 12.66617 27626 ft 408 kts 145°
2026-05-06 09:38 47.51048 12.69435 27935 ft 411 kts 145°
2026-05-06 09:38 47.48909 12.72281 28236 ft 415 kts 145°
2026-05-06 09:38 47.46758 12.75140 28586 ft 417 kts 145°
2026-05-06 09:38 47.44624 12.77972 28979 ft 419 kts 145°
2026-05-06 09:39 47.42448 12.80857 29288 ft 422 kts 145°
2026-05-06 09:39 47.40258 12.83757 29661 ft 423 kts 145°
2026-05-06 09:39 47.38062 12.86662 29977 ft 425 kts 145°
2026-05-06 09:39 47.35852 12.89582 30208 ft 428 kts 145°
2026-05-06 09:40 47.33633 12.92510 30510 ft 429 kts 145°
2026-05-06 09:40 47.31393 12.95462 30652 ft 433 kts 145°
2026-05-06 09:40 47.26893 13.01384 31211 ft 436 kts 146°
2026-05-06 09:41 47.22302 13.07410 31495 ft 445 kts 146°
2026-05-06 09:41 47.19992 13.10437 31806 ft 446 kts 146°
2026-05-06 09:41 47.17667 13.13481 32052 ft 448 kts 146°
2026-05-06 09:42 47.15335 13.16528 32284 ft 451 kts 146°
2026-05-06 09:42 47.12986 13.19596 32616 ft 451 kts 146°
2026-05-06 09:42 47.10636 13.22659 33000 ft 451 kts 146°
2026-05-06 09:42 47.08288 13.25716 33318 ft 451 kts 146°
2026-05-06 09:43 47.05942 13.28767 33609 ft 452 kts 147°
2026-05-06 09:43 47.03576 13.31841 33844 ft 454 kts 147°
2026-05-06 09:43 47.01210 13.34911 34132 ft 454 kts 147°
2026-05-06 09:43 46.98847 13.37975 34439 ft 453 kts 147°
2026-05-06 09:44 46.96488 13.41028 34689 ft 453 kts 147°
2026-05-06 09:44 46.94131 13.44076 34937 ft 452 kts 147°
2026-05-06 09:44 46.91769 13.47126 35224 ft 453 kts 146°
2026-05-06 09:44 46.89403 13.50175 35462 ft 454 kts 146°
2026-05-06 09:45 46.87034 13.53226 35732 ft 452 kts 146°
2026-05-06 09:45 46.84674 13.56262 35972 ft 453 kts 146°
2026-05-06 09:45 46.82305 13.59305 36155 ft 454 kts 146°
2026-05-06 09:45 46.79927 13.62357 36344 ft 456 kts 146°
2026-05-06 09:46 46.77545 13.65410 36591 ft 456 kts 146°
2026-05-06 09:46 46.75162 13.68461 36823 ft 456 kts 146°
2026-05-06 09:46 46.72777 13.71510 36941 ft 457 kts 145°
2026-05-06 09:46 46.70388 13.74560 36925 ft 456 kts 145°
2026-05-06 09:47 46.65662 13.80587 36927 ft 454 kts 146°
2026-05-06 09:47 46.60871 13.86682 36916 ft 454 kts 146°
2026-05-06 09:48 46.56276 13.92995 36940 ft 461 kts 141°
2026-05-06 09:48 46.51680 13.99561 36923 ft 459 kts 142°
2026-05-06 09:49 46.47138 14.05995 36946 ft 459 kts 142°
2026-05-06 09:49 46.42550 14.12473 36956 ft 460 kts 142°
2026-05-06 09:50 46.37956 14.18945 36926 ft 460 kts 141°
2026-05-06 09:50 46.33363 14.25398 36979 ft 460 kts 141°
2026-05-06 09:51 46.28773 14.31833 36973 ft 459 kts 142°
2026-05-06 09:51 46.24177 14.38259 36954 ft 458 kts 142°
2026-05-06 09:52 46.19593 14.44652 36965 ft 458 kts 142°
2026-05-06 09:52 46.15001 14.51042 36957 ft 459 kts 141°
2026-05-06 09:53 46.10391 14.57441 36978 ft 460 kts 141°
2026-05-06 09:53 46.05785 14.63820 36985 ft 459 kts 141°
2026-05-06 09:54 46.01168 14.70197 36945 ft 459 kts 142°
2026-05-06 09:54 45.96546 14.76562 36976 ft 462 kts 142°
2026-05-06 09:55 45.91917 14.82926 36967 ft 459 kts 141°
2026-05-06 09:55 45.87299 14.89259 36960 ft 459 kts 141°
2026-05-06 09:56 45.82708 14.95539 36948 ft 459 kts 141°
2026-05-06 09:56 45.78084 15.01849 36951 ft 459 kts 141°
2026-05-06 09:57 45.73448 15.08161 36916 ft 459 kts 141°
2026-05-06 09:57 45.68826 15.14438 36944 ft 457 kts 141°
2026-05-06 09:58 45.64215 15.20686 36932 ft 457 kts 141°
2026-05-06 09:58 45.59594 15.26933 36940 ft 457 kts 141°
2026-05-06 09:59 45.54834 15.32912 36942 ft 455 kts 144°
2026-05-06 09:59 45.50837 15.37812 36922 ft 456 kts 144°
2026-05-06 10:00 45.46023 15.43718 36933 ft 457 kts 144°
2026-05-06 10:00 45.41205 15.49617 36940 ft 457 kts 144°
2026-05-06 10:01 45.36383 15.55506 36936 ft 457 kts 144°
2026-05-06 10:01 45.31558 15.61385 36936 ft 457 kts 144°
2026-05-06 10:02 45.26752 15.67228 36929 ft 452 kts 144°
2026-05-06 10:02 45.22000 15.72992 36942 ft 452 kts 144°
2026-05-06 10:03 45.17215 15.78782 36942 ft 452 kts 144°
2026-05-06 10:03 45.12394 15.84602 36942 ft 452 kts 144°
2026-05-06 10:04 45.07634 15.90335 36951 ft 452 kts 144°
2026-05-06 10:04 45.02862 15.96071 36940 ft 447 kts 145°
2026-05-06 10:05 44.98118 16.01759 36961 ft 447 kts 145°
2026-05-06 10:05 44.93378 16.07428 36962 ft 446 kts 145°
2026-05-06 10:06 44.88629 16.13099 36950 ft 447 kts 145°
2026-05-06 10:06 44.83885 16.18750 36945 ft 447 kts 145°
2026-05-06 10:07 44.79133 16.24396 36955 ft 447 kts 145°
2026-05-06 10:07 44.74387 16.30024 36963 ft 446 kts 145°
2026-05-06 10:08 44.69633 16.35650 36957 ft 446 kts 145°
2026-05-06 10:08 44.64878 16.41263 36968 ft 446 kts 145°
2026-05-06 10:09 44.60124 16.46863 36953 ft 447 kts 145°
2026-05-06 10:09 44.55354 16.52468 36966 ft 447 kts 145°
2026-05-06 10:10 44.50578 16.58068 36973 ft 448 kts 145°
2026-05-06 10:10 44.45799 16.63662 36986 ft 448 kts 145°
2026-05-06 10:11 44.41019 16.69243 36981 ft 448 kts 145°
2026-05-06 10:11 44.36255 16.74796 36987 ft 449 kts 144°
2026-05-06 10:12 44.31460 16.80373 36984 ft 449 kts 144°
2026-05-06 10:12 44.26674 16.85988 36999 ft 449 kts 144°
2026-05-06 10:13 44.21892 16.91592 37005 ft 449 kts 144°
2026-05-06 10:13 44.17100 16.97195 37000 ft 449 kts 144°
2026-05-06 10:14 44.12308 17.02786 37014 ft 450 kts 144°
2026-05-06 10:14 44.07506 17.08377 37012 ft 449 kts 144°
2026-05-06 10:15 44.02697 17.13962 37034 ft 450 kts 144°
2026-05-06 10:15 43.97915 17.19504 37030 ft 450 kts 144°
2026-05-06 10:16 43.93101 17.25072 37030 ft 452 kts 144°
2026-05-06 10:16 43.88265 17.30653 37033 ft 452 kts 144°
2026-05-06 10:17 43.83452 17.36272 37046 ft 452 kts 142°
2026-05-06 10:17 43.78591 17.41804 36984 ft 451 kts 144°
2026-05-06 10:18 43.73736 17.47350 37044 ft 454 kts 144°
2026-05-06 10:18 43.68877 17.52906 37061 ft 454 kts 144°
2026-05-06 10:19 43.64012 17.58459 37038 ft 453 kts 144°
2026-05-06 10:19 43.59177 17.63966 37048 ft 454 kts 144°
2026-05-06 10:20 43.54272 17.69541 37048 ft 454 kts 144°
2026-05-06 10:20 43.49425 17.75038 37040 ft 454 kts 144°
2026-05-06 10:21 43.44534 17.80573 37054 ft 456 kts 144°
2026-05-06 10:21 43.39622 17.86121 37020 ft 456 kts 144°
2026-05-06 10:22 43.34717 17.91647 37052 ft 456 kts 144°
2026-05-06 10:22 43.29807 17.97167 37046 ft 456 kts 144°
2026-05-06 10:23 43.24896 18.02677 37049 ft 456 kts 144°
2026-05-06 10:23 43.19988 18.08172 37052 ft 456 kts 144°
2026-05-06 10:24 43.15102 18.13630 37048 ft 456 kts 144°
2026-05-06 10:24 43.10181 18.19115 37060 ft 456 kts 144°
2026-05-06 10:25 43.05257 18.24593 37069 ft 456 kts 144°
2026-05-06 10:25 43.00330 18.30062 37070 ft 456 kts 144°
2026-05-06 10:26 42.95402 18.35520 37074 ft 456 kts 144°
2026-05-06 10:26 42.90492 18.40947 37064 ft 456 kts 144°
2026-05-06 10:27 42.85522 18.46429 37077 ft 458 kts 144°
2026-05-06 10:27 42.80594 18.51852 37084 ft 459 kts 144°
2026-05-06 10:28 42.75626 18.57309 37085 ft 458 kts 144°
2026-05-06 10:28 42.70659 18.62752 37084 ft 458 kts 144°
2026-05-06 10:29 42.65691 18.68185 37089 ft 458 kts 144°
2026-05-06 10:29 42.60719 18.73611 37086 ft 458 kts 144°
2026-05-06 10:30 42.55751 18.79021 37092 ft 459 kts 144°
2026-05-06 10:30 42.50763 18.84442 37102 ft 460 kts 144°
2026-05-06 10:31 42.45768 18.89858 37098 ft 460 kts 144°
2026-05-06 10:31 42.40769 18.95269 37100 ft 460 kts 144°
2026-05-06 10:32 42.35797 19.00637 37101 ft 460 kts 144°
2026-05-06 10:32 42.30793 19.06030 37099 ft 460 kts 144°
2026-05-06 10:33 42.25776 19.11425 37098 ft 460 kts 144°
2026-05-06 10:33 42.20761 19.16805 37109 ft 462 kts 144°
2026-05-06 10:34 42.15723 19.22200 37117 ft 463 kts 144°
2026-05-06 10:34 42.10680 19.27590 37094 ft 462 kts 144°
2026-05-06 10:35 42.05636 19.32969 37111 ft 462 kts 144°
2026-05-06 10:35 42.00590 19.38338 37108 ft 462 kts 144°
2026-05-06 10:36 41.95545 19.43696 37096 ft 462 kts 144°
2026-05-06 10:36 41.90528 19.49013 37109 ft 464 kts 144°
2026-05-06 10:37 41.85459 19.54374 37101 ft 465 kts 144°
2026-05-06 10:37 41.80381 19.59733 37102 ft 464 kts 144°
2026-05-06 10:38 41.75296 19.65089 37094 ft 464 kts 144°
2026-05-06 10:38 41.70220 19.70424 37079 ft 464 kts 144°
2026-05-06 10:39 41.65137 19.75755 37095 ft 464 kts 144°
2026-05-06 10:39 41.60053 19.81077 37123 ft 465 kts 144°
2026-05-06 10:40 41.54987 19.86368 37097 ft 465 kts 144°
2026-05-06 10:40 41.49883 19.91689 37085 ft 466 kts 144°
2026-05-06 10:41 41.44777 19.97000 37088 ft 465 kts 144°
2026-05-06 10:41 41.39680 20.02291 37102 ft 464 kts 144°
2026-05-06 10:42 41.34574 20.07581 37108 ft 464 kts 144°
2026-05-06 10:42 41.29473 20.12854 37099 ft 464 kts 144°
2026-05-06 10:43 41.24351 20.18139 37091 ft 467 kts 144°
2026-05-06 10:44 41.16687 20.26027 37099 ft 463 kts 144°
2026-05-06 10:44 41.11593 20.31256 37100 ft 463 kts 145°
2026-05-06 10:45 41.06498 20.36476 37092 ft 463 kts 145°
2026-05-06 10:45 41.01390 20.41699 37089 ft 463 kts 145°
2026-05-06 10:46 40.96294 20.46898 37089 ft 463 kts 145°
2026-05-06 10:46 40.91161 20.52126 37100 ft 467 kts 145°
2026-05-06 10:47 40.86011 20.57360 37093 ft 467 kts 145°
2026-05-06 10:47 40.80862 20.62584 37078 ft 467 kts 145°
2026-05-06 10:48 40.75736 20.67776 37086 ft 467 kts 145°
2026-05-06 10:48 40.70583 20.72983 37073 ft 467 kts 145°
2026-05-06 10:49 40.65428 20.78184 37081 ft 467 kts 145°
2026-05-06 10:49 40.61105 20.82537 37079 ft 468 kts 145°
2026-05-06 10:50 40.55924 20.87743 37081 ft 470 kts 145°
2026-05-06 10:50 40.50727 20.92956 37086 ft 470 kts 145°
2026-05-06 10:51 40.45726 20.98475 37100 ft 470 kts 140°
2026-05-06 10:51 40.40924 21.04252 37075 ft 470 kts 139°
2026-05-06 10:52 40.36098 21.10077 37083 ft 471 kts 139°
2026-05-06 10:52 40.31275 21.15889 37071 ft 471 kts 139°
2026-05-06 10:53 40.26432 21.21711 37077 ft 473 kts 139°
2026-05-06 10:53 40.21591 21.27522 37066 ft 472 kts 139°
2026-05-06 10:54 40.16751 21.33318 37067 ft 472 kts 139°
2026-05-06 10:54 40.11902 21.39113 37069 ft 471 kts 139°
2026-05-06 10:55 40.07093 21.44850 37067 ft 472 kts 139°
2026-05-06 10:55 40.02237 21.50631 37063 ft 472 kts 139°
2026-05-06 10:56 39.97388 21.56392 37058 ft 472 kts 139°
2026-05-06 10:56 39.92529 21.62153 37062 ft 471 kts 139°
2026-05-06 10:57 39.87709 21.67855 37062 ft 472 kts 139°
2026-05-06 10:57 39.82846 21.73598 37057 ft 472 kts 140°
2026-05-06 10:58 39.77986 21.79326 37060 ft 472 kts 139°
2026-05-06 10:58 39.73109 21.85064 37047 ft 474 kts 139°
2026-05-06 10:59 39.68218 21.90804 37054 ft 474 kts 139°
2026-05-06 10:59 39.63323 21.96539 37043 ft 474 kts 140°
2026-05-06 11:00 39.58429 22.02261 37052 ft 474 kts 140°
2026-05-06 11:00 39.53531 22.07977 37051 ft 474 kts 140°
2026-05-06 11:01 39.48626 22.13690 37053 ft 474 kts 140°
2026-05-06 11:01 39.43712 22.19400 37089 ft 476 kts 140°
2026-05-06 11:02 39.38782 22.25119 37040 ft 475 kts 140°
2026-05-06 11:02 39.33886 22.30786 37045 ft 476 kts 140°
2026-05-06 11:03 39.28960 22.36478 37054 ft 475 kts 140°
2026-05-06 11:03 39.24032 22.42161 37051 ft 475 kts 140°
2026-05-06 11:04 39.19095 22.47844 37049 ft 476 kts 140°
2026-05-06 11:04 39.14132 22.53544 37059 ft 478 kts 140°
2026-05-06 11:05 39.09170 22.59231 37042 ft 477 kts 140°
2026-05-06 11:05 39.04211 22.64906 37053 ft 477 kts 140°
2026-05-06 11:06 38.99257 22.70562 37052 ft 476 kts 140°
2026-05-06 11:06 38.94296 22.76216 37062 ft 476 kts 140°
2026-05-06 11:07 38.89327 22.81868 37062 ft 478 kts 140°
2026-05-06 11:07 38.84330 22.87541 37068 ft 480 kts 140°
2026-05-06 11:08 38.79332 22.93203 37056 ft 479 kts 140°
2026-05-06 11:08 38.74338 22.98851 37058 ft 479 kts 140°
2026-05-06 11:09 38.69342 23.04489 37055 ft 479 kts 140°
2026-05-06 11:09 38.64368 23.10092 37065 ft 479 kts 140°
2026-05-06 11:10 38.59361 23.15721 37070 ft 480 kts 140°
2026-05-06 11:10 38.54334 23.21362 37067 ft 480 kts 140°
2026-05-06 11:11 38.49317 23.26980 37066 ft 479 kts 140°
2026-05-06 11:11 38.44287 23.32602 37050 ft 479 kts 140°
2026-05-06 11:12 38.39268 23.38201 37070 ft 479 kts 140°
2026-05-06 11:12 38.34248 23.43791 37073 ft 479 kts 140°
2026-05-06 11:13 38.29214 23.49385 37072 ft 481 kts 140°
2026-05-06 11:13 38.24163 23.54988 37068 ft 481 kts 140°
2026-05-06 11:14 38.19113 23.60578 37073 ft 481 kts 140°
2026-05-06 11:14 38.14063 23.66158 37088 ft 481 kts 140°
2026-05-06 11:15 38.09045 23.71692 37070 ft 481 kts 140°
2026-05-06 11:15 38.03978 23.77270 37080 ft 482 kts 140°
2026-05-06 11:16 37.98898 23.82852 37087 ft 483 kts 140°
2026-05-06 11:16 37.93815 23.88425 37102 ft 483 kts 140°
2026-05-06 11:17 37.88737 23.93983 37101 ft 482 kts 140°
2026-05-06 11:17 37.83653 23.99538 37110 ft 483 kts 140°
2026-05-06 11:18 37.78575 24.05077 37104 ft 482 kts 140°
2026-05-06 11:18 37.73482 24.10623 37136 ft 484 kts 140°
2026-05-06 11:19 37.68375 24.16173 37072 ft 484 kts 141°
2026-05-06 11:19 37.63263 24.21718 37095 ft 484 kts 141°
2026-05-06 11:20 37.58188 24.27213 37098 ft 484 kts 141°
2026-05-06 11:20 37.52775 24.32174 37117 ft 480 kts 150°
2026-05-06 11:21 37.47101 24.36649 37092 ft 481 kts 150°
2026-05-06 11:21 37.41415 24.41115 37093 ft 483 kts 150°
2026-05-06 11:22 37.35708 24.45589 37100 ft 482 kts 150°
2026-05-06 11:22 37.30016 24.50041 37097 ft 482 kts 150°
2026-05-06 11:23 37.24320 24.54489 37098 ft 482 kts 150°
2026-05-06 11:23 37.18629 24.58928 36219 ft 482 kts 150°
2026-05-06 11:23 37.15760 24.61161 35365 ft 487 kts 150°
2026-05-06 11:24 37.12889 24.63394 34817 ft 484 kts 150°
2026-05-06 11:24 37.10044 24.65605 34474 ft 477 kts 150°
2026-05-06 11:24 37.07246 24.67777 34085 ft 471 kts 150°
2026-05-06 11:24 37.04501 24.69907 33526 ft 468 kts 150°
2026-05-06 11:25 37.01733 24.72041 32912 ft 467 kts 151°
2026-05-06 11:25 36.98978 24.74167 32383 ft 464 kts 151°
2026-05-06 11:25 36.96244 24.76286 31947 ft 459 kts 150°
2026-05-06 11:25 36.93541 24.78384 31478 ft 456 kts 150°
2026-05-06 11:26 36.90852 24.80466 30947 ft 454 kts 150°
2026-05-06 11:26 36.88166 24.82547 30409 ft 454 kts 149°
2026-05-06 11:26 36.85492 24.84618 29888 ft 451 kts 149°
2026-05-06 11:26 36.82833 24.86674 29380 ft 447 kts 149°
2026-05-06 11:27 36.80198 24.88710 28919 ft 444 kts 149°
2026-05-06 11:27 36.77581 24.90733 28454 ft 440 kts 149°
2026-05-06 11:27 36.74982 24.92737 27996 ft 437 kts 149°
2026-05-06 11:27 36.72407 24.94721 27542 ft 434 kts 149°
2026-05-06 11:28 36.69848 24.96690 27058 ft 432 kts 149°
2026-05-06 11:28 36.67322 24.98629 26584 ft 430 kts 149°
2026-05-06 11:28 36.64786 25.00575 26199 ft 426 kts 149°
2026-05-06 11:28 36.62270 25.02503 25782 ft 424 kts 149°
2026-05-06 11:29 36.59758 25.04427 25338 ft 422 kts 149°
2026-05-06 11:29 36.57264 25.06337 24906 ft 417 kts 149°
2026-05-06 11:29 36.54813 25.08212 24492 ft 410 kts 149°
2026-05-06 11:29 36.52405 25.10052 24072 ft 402 kts 149°
2026-05-06 11:30 36.50049 25.11851 23673 ft 392 kts 149°
2026-05-06 11:30 36.47757 25.13600 23205 ft 383 kts 149°
2026-05-06 11:30 36.45514 25.15311 22811 ft 373 kts 149°
2026-05-06 11:30 36.43329 25.16976 22452 ft 366 kts 149°
2026-05-06 11:31 36.41161 25.18627 22068 ft 364 kts 149°
2026-05-06 11:31 36.39000 25.20272 21694 ft 363 kts 149°
2026-05-06 11:31 36.36853 25.21905 21325 ft 361 kts 149°
2026-05-06 11:31 36.34714 25.23531 20964 ft 360 kts 149°
2026-05-06 11:32 36.32587 25.25147 20596 ft 358 kts 151°
2026-05-06 11:32 36.30490 25.26748 20217 ft 357 kts 149°
2026-05-06 11:32 36.28348 25.28367 19875 ft 355 kts 149°
2026-05-06 11:32 36.26271 25.29939 19523 ft 354 kts 149°
2026-05-06 11:33 36.24172 25.31529 19162 ft 353 kts 149°
2026-05-06 11:33 36.22079 25.33114 18808 ft 352 kts 149°
2026-05-06 11:33 36.19989 25.34695 18457 ft 352 kts 149°
2026-05-06 11:33 36.17901 25.36274 18043 ft 351 kts 149°
2026-05-06 11:34 36.15816 25.37850 17665 ft 350 kts 149°
2026-05-06 11:34 36.13742 25.39417 17294 ft 348 kts 149°
2026-05-06 11:34 36.11611 25.40809 16852 ft 346 kts 162°
2026-05-06 11:34 36.10102 25.41413 16657 ft 343 kts 164°
2026-05-06 11:35 36.07832 25.42313 16323 ft 341 kts 163°
2026-05-06 11:35 36.05582 25.43215 15972 ft 339 kts 163°
2026-05-06 11:35 36.03346 25.44114 15630 ft 337 kts 163°
2026-05-06 11:35 36.01120 25.45010 15284 ft 336 kts 163°
2026-05-06 11:36 35.98899 25.45903 14938 ft 335 kts 163°
2026-05-06 11:36 35.95975 25.47079 14484 ft 333 kts 163°
2026-05-06 11:36 35.93782 25.47960 14136 ft 330 kts 163°
2026-05-06 11:36 35.92307 25.48553 13899 ft 329 kts 163°
2026-05-06 11:37 35.90138 25.49424 13516 ft 327 kts 163°
2026-05-06 11:37 35.88019 25.50274 13154 ft 321 kts 163°
2026-05-06 11:37 35.85894 25.51126 12817 ft 314 kts 163°
2026-05-06 11:37 35.83864 25.51940 12499 ft 309 kts 163°
2026-05-06 11:38 35.81827 25.52756 12180 ft 307 kts 163°
2026-05-06 11:38 35.79802 25.53566 11861 ft 306 kts 163°
2026-05-06 11:38 35.77785 25.54373 11543 ft 304 kts 162°
2026-05-06 11:38 35.75778 25.55176 11228 ft 303 kts 162°
2026-05-06 11:39 35.73778 25.55975 10913 ft 302 kts 162°
2026-05-06 11:39 35.71782 25.56773 10593 ft 301 kts 162°
2026-05-06 11:39 35.69811 25.57615 10287 ft 299 kts 154°
2026-05-06 11:39 35.68120 25.59052 10035 ft 294 kts 140°
2026-05-06 11:40 35.66526 25.60618 9713 ft 293 kts 140°
2026-05-06 11:40 35.64937 25.62176 9385 ft 291 kts 140°
2026-05-06 11:40 35.63355 25.63732 9067 ft 290 kts 140°
2026-05-06 11:40 35.61750 25.65227 8746 ft 289 kts 148°
2026-05-06 11:41 35.59889 25.66105 8405 ft 288 kts 174°
2026-05-06 11:41 35.57933 25.65854 8145 ft 281 kts 202°
2026-05-06 11:41 35.56271 25.64661 8052 ft 277 kts 225°
2026-05-06 11:41 35.55118 25.62818 7963 ft 267 kts 248°
2026-05-06 11:42 35.54386 25.60803 7989 ft 252 kts 245°
2026-05-06 11:42 35.53592 25.58942 7999 ft 242 kts 245°
2026-05-06 11:42 35.52816 25.57132 7827 ft 238 kts 245°
2026-05-06 11:42 35.52060 25.55365 7452 ft 236 kts 245°
2026-05-06 11:43 35.51299 25.53599 7004 ft 233 kts 244°
2026-05-06 11:43 35.50543 25.51854 6556 ft 229 kts 244°
2026-05-06 11:43 35.49801 25.50143 6110 ft 225 kts 244°
2026-05-06 11:44 35.48388 25.46888 5522 ft 205 kts 244°
2026-05-06 11:44 35.47740 25.45395 5347 ft 192 kts 243°
2026-05-06 11:44 35.47146 25.43972 5213 ft 183 kts 245°
2026-05-06 11:44 35.46325 25.42854 5062 ft 180 kts 207°
2026-05-06 11:45 35.45098 25.42497 4999 ft 185 kts 186°
2026-05-06 11:45 35.43791 25.42369 4782 ft 190 kts 185°
2026-05-06 11:45 35.42467 25.42253 4465 ft 190 kts 185°
2026-05-06 11:45 35.41154 25.42137 4199 ft 188 kts 185°
2026-05-06 11:46 35.39852 25.42020 3993 ft 187 kts 185°
2026-05-06 11:46 35.38557 25.41908 3842 ft 186 kts 185°
2026-05-06 11:46 35.37263 25.41800 3726 ft 187 kts 185°
2026-05-06 11:46 35.35967 25.41693 3538 ft 187 kts 185°
2026-05-06 11:47 35.34687 25.41451 3273 ft 186 kts 206°
2026-05-06 11:47 35.33755 25.40435 2991 ft 179 kts 239°
2026-05-06 11:47 35.33164 25.39101 2769 ft 179 kts 244°
2026-05-06 11:47 35.32734 25.37702 2572 ft 178 kts 262°
2026-05-06 11:48 35.32681 25.36215 2455 ft 174 kts 275°
2026-05-06 11:48 35.32796 25.34740 2465 ft 174 kts 276°
2026-05-06 11:48 35.32908 25.33253 2293 ft 176 kts 276°
2026-05-06 11:48 35.33009 25.31773 2139 ft 173 kts 277°
2026-05-06 11:49 35.33115 25.30330 1956 ft 167 kts 275°
2026-05-06 11:49 35.33209 25.28975 1738 ft 154 kts 276°
2026-05-06 11:49 35.33302 25.27697 1530 ft 149 kts 276°
2026-05-06 11:49 35.33391 25.26433 1302 ft 149 kts 276°
2026-05-06 11:50 35.33479 25.25163 1125 ft 151 kts 276°
2026-05-06 11:50 35.33569 25.23877 927 ft 151 kts 276°
2026-05-06 11:50 35.33657 25.22592 698 ft 152 kts 276°
2026-05-06 11:50 35.33747 25.21326 525 ft 151 kts 276°
2026-05-06 11:51 35.33833 25.20044 286 ft 151 kts 275°
2026-05-06 11:51 35.33923 25.18771 94 ft 146 kts 275°
2026-05-06 11:51 35.33981 25.17791 95 ft 80 kts 274°
2026-05-06 11:51 35.34027 25.17376 93 ft 25 kts 278°
2026-05-06 11:52 35.34016 25.17168 93 ft 29 kts 242°
2026-05-06 11:52 35.33980 25.17079 94 ft 7 kts 245°
2026-05-06 11:52 35.33931 25.17067 94 ft 9 kts 137°
2026-05-06 11:52 35.33939 25.17149 93 ft 13 kts 82°
2026-05-06 11:53 35.33924 25.17296 95 ft 22 kts 96°
2026-05-06 11:53 35.33912 25.17500 94 ft 14 kts 94°
2026-05-06 11:53 35.33896 25.17605 95 ft 17 kts 126°
2026-05-06 11:53 35.33798 25.17608 93 ft 4 kts 230°
2026-05-06 11:54 35.33801 25.17557 95 ft 0 kts 307°
2026-05-06 11:54 35.33810 25.17545 93 ft 0 kts 310°